Weather History for Martinsburg, WV

Change the Weather History Date:

Friday, October 19, 2012

  Actual Average Record
Temperature  
Mean Temperature 59 °F 53 °F  
Max Temperature 68 °F 64 °F 84 °F (1953)
Min Temperature 49 °F 41 °F 25 °F (1948)
Degree Days  
Heating Degree Days 6 12  
Month to date heating degree days 196 183  
Since 1 July heating degree days 273 274  
Cooling Degree Days 0 0  
Month to date cooling degree days 9 8  
Year to date cooling degree days 1144 893  
Growing Degree Days 10 (Base 50)    
Moisture  
Dew Point 54 °F    
Average Humidity 81    
Maximum Humidity 93    
Minimum Humidity 68    
Precipitation  
Precipitation 0.01 in 0.09 in 1.75 in (1932)
Month to date precipitation 1.87 1.88  
Year to date precipitation 27.83 31.69  
Sea Level Pressure  
Sea Level Pressure 29.73 in    
Wind  
Wind Speed 3 mph (NNW)    
Max Wind Speed 10 mph    
Max Gust Speed 17 mph    
Visibility 8 miles    
Events Rain    
T = Trace of Precipitation, MM = Missing Value Source: NWS Daily Summary

Daily Weather History Graph

Daily Weather History Graph

Search for Another Location

Airport:

Trip Planner

Search our weather history database for the weather conditions in past years. The results will help you decide how hot, cold, wet, or windy it might be!

Date:

Astronomy

Oct. 19, 2012 Rise Set
Actual Time 7:26 AM EDT 6:26 PM EDT
Civil Twilight 6:59 AM EDT 6:53 PM EDT
Nautical Twilight 6:27 AM EDT 7:24 PM EDT
Astronomical Twilight 5:56 AM EDT 7:55 PM EDT
Moon 12:06 PM EDT (10/19) 10:03 PM EDT (10/19)
Length of Visible Light 11h 54m
Length of Day
11h 00m
Waxing Crescent, 23% of the Moon is Illuminated
Oct 19
Waxing Crescent
Oct 21
First Quarter
Oct 29
Full
Nov 6
Last Quarter
Nov 13
New

Hourly Weather History & Observations

Time (EDT) Temp. Dew Point Humidity Pressure Visibility Wind Dir Wind Speed Gust Speed Precip Events Conditions
12:00 AM 59.0 °F 57.2 °F 94% 29.83 in 10.0 mi NNW 3.5 mph - N/A   Overcast
12:18 AM 59.0 °F 57.2 °F 94% 29.81 in 9.0 mi North 4.6 mph - 0.00 in Rain Light Rain
12:27 AM 59.0 °F 57.2 °F 94% 29.83 in 10.0 mi WNW 3.5 mph - 0.01 in Rain Light Rain
12:53 AM 57.9 °F 57.0 °F 97% 29.81 in 4.0 mi ESE 4.6 mph - 0.05 in Rain Rain
1:04 AM 57.2 °F 57.2 °F 100% 29.82 in 4.0 mi ENE 4.6 mph - 0.03 in Rain Rain
1:37 AM 57.2 °F 55.4 °F 94% 29.82 in 10.0 mi Calm Calm - 0.03 in   Overcast
1:53 AM 57.0 °F 55.9 °F 96% 29.79 in 10.0 mi North 5.8 mph - 0.03 in   Overcast
2:53 AM 57.0 °F 55.9 °F 96% 29.79 in 7.0 mi NNE 3.5 mph - N/A   Overcast
3:53 AM 57.0 °F 55.9 °F 96% 29.78 in 5.0 mi North 3.5 mph - N/A   Overcast
4:11 AM 57.2 °F 55.4 °F 94% 29.77 in 7.0 mi North 5.8 mph - N/A   Overcast
4:24 AM 57.2 °F 55.4 °F 94% 29.77 in 10.0 mi North 3.5 mph - N/A   Overcast
4:35 AM 57.2 °F 55.4 °F 94% 29.76 in 10.0 mi NNW 3.5 mph - N/A   Overcast
4:53 AM 57.0 °F 54.0 °F 89% 29.76 in 10.0 mi NNW 3.5 mph - N/A   Overcast
5:53 AM 57.0 °F 54.0 °F 89% 29.76 in 10.0 mi Calm Calm - N/A   Overcast
6:31 AM 55.4 °F 53.6 °F 94% 29.77 in 10.0 mi NNW 3.5 mph - N/A   Overcast
6:48 AM 55.4 °F 53.6 °F 94% 29.77 in 10.0 mi Calm Calm - N/A   Scattered Clouds
6:53 AM 55.9 °F 53.1 °F 90% 29.77 in 10.0 mi Calm Calm - N/A   Scattered Clouds
7:34 AM 53.6 °F 51.8 °F 94% 29.77 in 9.0 mi Calm Calm - N/A   Mostly Cloudy
7:53 AM 55.0 °F 53.1 °F 93% 29.76 in 10.0 mi NNE 3.5 mph - N/A   Overcast
8:27 AM 55.4 °F 53.6 °F 94% 29.77 in 10.0 mi Calm Calm - N/A   Overcast
8:36 AM 55.4 °F 53.6 °F 94% 29.77 in 10.0 mi Calm Calm - N/A   Overcast
8:53 AM 55.9 °F 53.1 °F 90% 29.78 in 10.0 mi West 3.5 mph - N/A   Overcast
9:53 AM 57.0 °F 54.0 °F 89% 29.76 in 7.0 mi Calm Calm - N/A   Overcast
10:53 AM 57.9 °F 54.0 °F 87% 29.75 in 8.0 mi NNW 3.5 mph - N/A   Overcast
11:53 AM 60.1 °F 55.0 °F 83% 29.73 in 10.0 mi Calm Calm - N/A   Overcast
12:53 PM 61.0 °F 55.0 °F 81% 29.72 in 10.0 mi Calm Calm - N/A   Overcast
1:53 PM 62.1 °F 55.9 °F 80% 29.70 in 10.0 mi SE 5.8 mph - N/A   Overcast
2:01 PM 62.6 °F 57.2 °F 82% 29.70 in 10.0 mi SW 4.6 mph - N/A   Overcast
2:53 PM 64.9 °F 57.0 °F 75% 29.67 in 10.0 mi Variable 5.8 mph - N/A   Overcast
3:04 PM 64.4 °F 55.4 °F 73% 29.67 in 10.0 mi SSE 5.8 mph - N/A   Mostly Cloudy
3:53 PM 66.9 °F 55.9 °F 68% 29.65 in 10.0 mi Variable 5.8 mph - N/A   Scattered Clouds
4:53 PM 66.9 °F 55.9 °F 68% 29.63 in 10.0 mi ESE 3.5 mph - N/A   Clear
5:53 PM 64.9 °F 55.9 °F 73% 29.62 in 10.0 mi Calm Calm - N/A   Clear
6:53 PM 57.9 °F 55.0 °F 90% 29.63 in 10.0 mi Calm Calm - N/A   Clear
7:53 PM 55.9 °F 54.0 °F 93% 29.64 in 9.0 mi Calm Calm - N/A   Clear
8:46 PM 55.4 °F 53.6 °F 94% 29.65 in 1.8 mi Calm Calm - N/A   Clear
8:53 PM 53.1 °F 52.0 °F 96% 29.65 in 0.8 mi Calm Calm - N/A   Clear
9:07 PM 53.6 °F 51.8 °F 94% 29.65 in 2.5 mi Calm Calm - N/A   Clear
9:16 PM 53.6 °F 51.8 °F 94% 29.65 in 1.5 mi Calm Calm - N/A   Clear
9:21 PM 53.6 °F 51.8 °F 94% 29.66 in 4.0 mi South 4.6 mph - N/A   Clear
9:53 PM 53.1 °F 50.0 °F 89% 29.66 in 9.0 mi Calm Calm - N/A   Clear
10:53 PM 54.0 °F 46.9 °F 77% 29.67 in 10.0 mi SW 4.6 mph - N/A   Clear
11:53 PM 53.1 °F 45.0 °F 74% 29.68 in 10.0 mi SSW 3.5 mph - N/A   Clear